Theta_e
291 289 286 289 290 288 288 288 288 289 287 286 289 290 293 296 297 296 296 297 297 297 299 300 300 300 301 301 300 301 301 301 301 302 301 302 301 302 303 304 304 303 303 302
288 286 288 288 287 286 287 287 288 288 286 286 290 289 293 296 297 297 298 297 298 298 299 299 299 300 299 300 300 300 300 300 301 301 302 301 300 301 302 303 303 303 302 301
288 286 287 286 285 285 287 287 287 286 287 288 287 290 293 296 294 296 298 297 298 300 299 299 298 298 299 299 300 300 300 300 301 300 300 300 301 302 301 302 301 301 301 301
287 286 285 285 285 286 285 286 285 284 286 286 287 285 293 297 294 293 295 295 296 297 298 299 298 298 298 301 303 302 301 300 300 300 299 299 298 297 299 299 300 300 300 300
285 283 283 283 284 284 283 285 285 284 285 284 285 284 292 294 293 294 295 298 297 298 297 296 298 299 299 302 303 302 300 300 299 299 299 299 298 299 299 299 299 299 299 299
284 286 285 284 284 284 285 284 284 284 285 282 286 284 290 294 294 293 294 296 296 296 296 297 297 299 299 302 303 302 299 299 299 299 299 298 298 297 297 297 296 297 297 297
283 283 284 284 283 284 284 284 286 284 281 283 282 281 289 294 293 294 294 295 296 296 296 296 296 297 299 300 299 300 299 298 298 298 298 298 297 297 296 296 295 294 294 294
284 283 283 285 284 284 283 285 285 282 282 283 281 280 289 295 294 295 295 296 296 295 296 296 296 297 297 298 298 299 299 298 298 297 297 298 297 296 296 295 294 294 293 293
285 283 282 282 283 284 283 281 285 283 277 279 286 289 293 296 294 295 294 294 295 296 296 297 297 298 298 298 298 299 298 298 297 297 297 297 296 295 294 294 294 293 293 293
289 284 280 281 283 284 283 284 281 283 280 279 284 284 287 292 292 293 294 294 296 297 297 296 297 297 297 298 298 298 298 297 297 296 296 296 295 294 294 293 293 293 292 292
287 288 279 280 279 281 279 281 281 282 283 281 281 285 294 294 295 294 295 296 297 297 297 297 297 298 297 297 297 297 295 295 295 295 296 295 294 294 293 292 292 292 292 291
287 285 281 282 281 281 281 283 284 283 282 281 280 283 296 293 293 295 296 295 297 297 297 298 298 298 297 296 296 295 295 294 294 296 295 294 293 293 292 292 292 292 291 291
286 287 284 280 280 279 278 281 283 284 282 282 281 285 290 291 292 293 294 296 295 296 297 297 297 296 295 296 296 295 295 294 294 294 293 293 292 292 291 291 291 291 291 291
288 288 286 283 287 285 277 280 281 282 282 282 283 286 292 293 292 294 294 295 296 296 296 296 297 297 297 296 295 294 294 293 294 293 292 292 292 291 291 290 290 290 291 290
285 281 282 283 284 283 285 281 280 278 281 282 286 286 290 293 294 297 298 297 296 295 295 295 295 296 296 295 294 293 293 293 293 292 291 291 291 290 290 289 290 290 290 290
282 283 279 277 281 281 279 281 281 281 282 283 285 285 293 295 295 295 295 296 295 295 295 296 296 294 294 294 293 291 292 292 292 291 291 291 290 289 289 289 289 289 289 289
280 281 277 277 280 278 275 278 281 282 284 284 281 287 292 292 293 293 294 294 294 295 294 295 295 294 293 293 292 291 292 292 290 290 291 290 289 288 288 288 288 287 287 287
280 280 281 278 276 271 284 291 288 284 285 287 287 290 292 294 296 296 297 295 294 295 294 294 294 294 293 293 292 292 291 291 290 290 289 289 287 286 286 286 285 286 286 285
285 281 280 277 277 281 285 288 283 282 284 288 288 289 290 291 292 291 294 295 294 294 295 295 295 294 292 291 291 290 290 289 289 288 288 287 286 285 285 284 284 284 284 284
284 284 281 279 276 275 286 291 290 287 280 292 292 289 290 289 283 290 298 296 294 293 293 293 292 291 291 290 290 289 287 287 286 287 287 286 285 285 284 284 284 284 284 284
278 278 276 278 278 281 290 287 289 279 284 293 293 293 292 288 291 295 294 291 293 292 291 292 291 289 289 288 288 287 287 285 287 286 285 284 284 284 285 285 285 283 283 284
278 275 275 276 275 275 292 285 283 291 294 292 292 293 292 293 293 291 291 291 291 290 290 290 289 288 288 287 286 286 286 287 286 285 284 283 283 284 285 284 284 284 283 283
279 282 281 280 281 288 289 290 292 292 293 294 293 294 293 292 291 291 291 290 289 290 289 288 289 287 285 285 286 285 286 286 284 283 283 282 283 284 284 284 284 283 284 284
279 282 279 283 287 287 289 292 292 293 292 293 292 291 290 290 290 289 289 289 289 288 287 286 286 285 285 285 284 286 286 285 283 283 282 282 282 283 284 284 284 283 284 284
278 280 279 280 278 279 286 281 280 281 285 285 286 288 289 290 289 288 288 289 289 288 287 286 286 285 286 285 285 285 284 284 283 283 283 283 283 283 284 284 284 284 285 284
276 272 273 273 273 271 275 276 275 275 276 276 277 280 285 287 288 288 288 289 288 289 288 285 285 285 286 286 285 284 284 284 283 284 284 283 283 284 284 284 284 286 286 285
Wind_Speed
2 5 9 12 9 4 5 5 7 4 3 4 14 19 19 16 16 17 18 15 15 18 17 16 17 16 14 14 14 12 10 8 5 3 3 4 4 5 5 5 7 7 8 9
2 9 3 4 0 4 5 7 10 3 2 4 10 18 22 20 21 21 19 18 19 18 17 17 17 16 17 16 14 13 11 8 6 3 2 3 4 4 5 5 6 7 8 10
11 3 2 2 3 5 6 8 3 4 4 6 10 12 10 4 6 11 16 14 16 17 17 17 19 19 17 16 15 13 11 9 7 5 3 4 5 5 5 6 7 7 10 9
5 4 3 4 4 4 6 2 1 1 3 5 2 9 10 6 8 9 9 11 11 12 11 15 19 19 18 15 12 12 10 9 7 7 5 4 4 6 6 7 6 7 9 10
2 3 4 4 2 2 3 2 2 2 4 5 7 6 5 2 6 6 3 10 10 10 11 13 15 17 17 13 11 9 10 10 8 6 5 3 5 4 5 6 9 9 8 9
2 1 1 3 4 3 7 2 1 1 3 5 6 5 4 7 2 5 4 7 6 7 8 9 11 13 15 11 9 9 11 9 8 7 6 5 5 6 6 7 7 7 7 7
4 4 4 2 4 4 2 2 2 3 3 5 2 4 12 3 5 3 8 6 7 7 8 9 12 14 13 12 11 10 11 10 9 8 5 4 5 5 7 7 6 9 8 7
7 6 10 9 2 1 7 3 4 5 4 2 2 8 6 2 4 2 4 6 7 8 8 9 11 12 12 12 12 11 10 9 8 7 6 4 4 4 4 6 6 6 7 8
7 4 4 1 1 2 7 7 3 1 2 3 7 9 13 7 14 12 10 10 10 9 9 9 9 10 11 11 12 12 11 8 8 7 5 5 5 5 5 7 7 6 8 8
1 2 1 4 2 4 5 2 4 4 4 6 5 6 12 3 6 6 11 14 11 10 9 8 8 9 10 11 11 11 10 10 8 7 6 5 4 4 5 6 7 8 8 10
1 2 4 2 11 10 6 5 3 2 3 4 5 5 3 3 6 4 3 8 10 9 7 9 8 8 9 10 11 12 11 10 8 7 7 6 5 4 5 6 6 8 9 10
6 2 6 6 3 2 2 6 11 6 7 5 3 11 1 1 2 3 6 6 5 5 6 8 7 7 9 11 12 12 10 10 8 8 8 6 5 5 5 5 6 7 9 10
9 5 3 4 4 1 7 9 7 2 1 9 5 6 2 4 8 9 9 6 6 7 8 8 8 9 10 10 10 11 10 10 9 9 8 6 6 5 4 5 5 6 8 10
5 4 7 13 4 6 6 8 13 8 7 7 19 19 12 7 9 9 9 10 10 11 12 10 10 9 9 9 11 10 10 8 9 9 8 7 6 4 4 4 5 5 7 9
4 9 6 12 6 4 4 5 16 19 24 14 18 24 18 18 19 17 12 12 10 11 13 12 10 8 9 9 9 8 9 10 10 9 8 7 5 4 4 5 5 5 7 8
4 5 3 10 8 9 9 13 16 21 19 29 22 32 14 16 13 18 20 17 14 14 14 10 8 8 9 8 9 8 10 10 10 9 8 7 5 4 4 4 5 6 6 8
7 5 5 19 7 5 10 29 17 19 21 20 24 32 13 20 20 21 21 17 15 15 13 10 9 9 7 8 9 10 10 9 9 8 7 7 6 5 3 4 4 5 6 8
9 11 6 6 4 13 20 11 20 30 30 25 25 31 21 19 17 19 11 14 13 12 13 12 8 8 6 6 8 8 8 9 8 8 7 7 6 5 4 3 5 5 4 6
16 10 8 8 13 15 16 9 7 11 23 22 29 27 22 22 15 27 18 17 19 17 11 7 6 7 9 9 9 10 9 8 8 8 8 7 6 5 5 6 5 5 5 6
18 19 14 6 9 14 19 18 16 6 18 15 17 23 24 9 10 18 8 5 8 6 7 8 8 6 7 8 10 11 10 9 10 9 8 7 6 6 6 6 5 5 4 5
8 9 21 21 18 10 13 4 8 13 6 14 20 24 16 12 16 2 3 4 5 6 8 8 9 9 9 9 9 9 9 12 10 7 7 7 7 7 7 6 4 5 5 5
18 12 10 11 12 23 8 7 17 5 3 4 5 14 9 18 6 5 7 6 8 8 6 6 6 7 6 8 9 8 11 8 7 8 8 7 7 6 6 7 5 4 4 5
28 23 19 17 9 9 9 18 14 13 9 6 4 5 10 7 12 11 8 8 9 7 6 4 4 3 4 7 9 11 8 9 8 9 9 7 7 7 7 7 5 4 3 3
13 14 8 16 9 14 11 11 12 11 16 14 6 6 7 11 13 12 8 7 9 7 8 5 5 6 7 8 10 13 6 8 9 9 9 8 7 8 8 5 4 5 3 3
7 9 6 13 9 16 10 20 23 24 21 19 18 9 8 9 7 7 8 10 9 6 3 4 6 7 11 7 9 7 7 9 8 8 7 8 8 9 7 7 6 6 4 3
4 3 3 4 9 3 13 17 21 21 22 20 20 21 18 8 15 4 7 4 5 6 4 4 6 8 11 6 7 7 10 11 10 9 9 8 8 7 7 7 6 12 8 8
Wind_Direction
81 225 221 224 234 340 321 270 254 125 125 255 241 261 269 268 255 240 237 232 225 225 220 211 206 201 200 200 199 200 201 203 203 217 263 277 290 310 301 319 323 321 319 321
185 238 54 66 354 249 246 259 254 125 162 261 293 280 277 262 248 242 242 236 233 230 218 207 205 196 198 199 202 201 206 203 197 202 233 263 299 303 313 294 291 322 324 322
242 57 118 188 193 218 235 250 249 302 301 239 292 265 242 212 251 254 243 249 249 235 224 211 205 201 197 200 197 204 197 199 196 192 215 241 257 267 291 322 319 326 321 318
262 92 195 205 220 221 243 51 105 310 308 294 318 292 286 248 221 217 226 214 217 219 224 223 204 205 201 198 195 195 193 190 191 188 222 253 290 299 316 307 309 313 314 313
152 177 182 213 28 329 40 45 36 353 281 312 175 249 246 167 249 177 198 205 193 194 203 210 213 197 203 192 186 188 189 193 189 194 218 248 276 295 308 304 307 311 307 309
64 116 305 36 74 39 127 107 88 238 266 251 157 229 261 234 193 141 140 164 170 183 188 197 197 196 199 182 177 185 189 198 190 200 205 231 273 295 304 306 306 305 307 309
164 182 147 206 145 113 233 198 234 222 199 254 124 216 266 220 174 165 146 151 162 162 166 164 170 185 192 180 189 192 195 198 195 202 206 230 265 287 288 299 299 309 308 310
199 229 181 156 264 28 188 275 254 262 225 62 131 232 241 40 97 182 240 220 162 174 166 170 175 179 186 190 197 199 193 201 192 200 206 223 245 263 282 283 297 296 300 305
173 198 128 165 146 232 150 212 7 318 121 274 233 239 275 246 228 227 213 194 190 177 176 181 180 185 191 194 204 204 203 203 199 196 198 222 234 248 271 285 288 292 300 299
315 145 327 106 199 222 262 37 174 205 245 248 212 269 257 219 218 205 197 201 193 184 186 180 186 195 204 207 205 206 209 205 198 193 207 223 235 254 275 284 291 296 298 300
105 156 115 168 200 183 172 208 201 339 233 259 281 244 342 303 180 175 164 187 196 189 190 185 192 204 207 207 206 202 204 203 196 194 205 215 230 248 267 280 291 296 302 301
180 176 194 199 110 335 296 231 185 216 193 233 306 251 331 141 235 217 185 177 182 184 181 169 191 207 206 215 213 209 206 207 201 196 201 210 223 236 256 273 295 299 301 304
181 208 216 195 173 149 220 200 228 275 333 202 213 251 91 216 225 224 239 239 207 206 216 231 234 227 224 222 217 212 207 207 197 189 200 203 224 236 259 277 286 296 302 305
165 213 207 242 211 119 194 203 204 200 217 223 227 255 248 236 238 231 212 227 238 231 252 249 254 247 231 227 220 209 203 195 186 191 196 209 218 232 264 279 282 294 301 306
188 235 193 247 259 202 215 173 194 207 228 228 247 243 236 252 269 277 254 273 274 268 264 263 262 243 227 222 214 205 194 183 184 188 196 205 205 218 256 269 284 296 302 304
181 241 108 257 222 223 257 240 215 217 230 238 255 265 257 277 275 261 265 269 271 268 266 261 245 232 228 216 202 182 185 179 182 189 197 194 195 208 240 268 291 299 305 306
177 211 170 258 191 173 267 232 217 226 226 224 234 247 251 254 247 254 256 258 260 254 253 246 237 238 216 202 182 179 184 171 184 186 189 188 197 197 215 271 293 293 304 310
187 201 214 244 114 224 243 232 219 219 234 219 248 256 244 252 254 255 259 258 257 256 251 249 237 220 170 172 167 169 166 172 183 185 189 184 186 183 207 230 266 276 296 300
195 187 220 223 213 270 289 243 174 177 241 227 237 251 250 256 284 272 255 248 246 240 244 234 194 182 164 169 161 155 166 174 181 197 190 188 179 182 202 229 250 279 303 305
207 216 224 190 226 229 256 240 198 162 261 213 224 241 241 211 234 259 241 209 211 198 196 179 169 160 165 165 160 163 177 175 200 191 192 171 169 181 206 225 245 271 285 295
185 213 228 236 244 238 246 120 120 212 241 199 220 234 226 197 221 320 79 154 176 190 177 167 169 182 183 154 158 180 172 203 202 178 164 167 172 186 209 217 227 267 291 298
200 196 210 231 244 240 206 136 219 244 176 212 221 233 207 218 215 207 195 193 188 192 179 186 178 196 169 154 163 184 200 198 166 163 171 182 182 182 203 213 229 245 262 291
237 218 225 202 209 194 200 232 225 259 278 233 227 218 214 221 209 204 217 209 206 198 186 166 207 193 197 182 185 194 210 166 170 164 182 191 176 184 200 209 220 242 226 252
13 22 339 299 249 258 272 260 274 277 248 249 249 253 176 201 208 197 218 237 228 197 189 173 178 227 237 205 198 219 161 166 167 184 181 184 187 196 200 195 206 224 212 234
297 312 302 282 0 333 23 14 0 349 4 5 344 329 309 310 281 207 225 207 217 220 209 170 195 228 240 181 210 204 176 162 182 191 182 186 189 203 197 202 201 215 210 197
29 21 340 318 36 248 289 333 3 354 353 348 341 330 325 292 280 286 267 253 202 209 209 192 216 231 239 201 212 191 178 176 183 197 192 188 183 193 200 199 196 221 236 195